Weather Service Report


142 
ASUS42 KRAH 030010
RWRRAH
NORTH CAROLINA WEATHER ROUNDUP
NATIONAL WEATHER SERVICE RALEIGH NC
800 PM EDT THU JUL 02 2015

NOTE: "FAIR" INDICATES FEW OR NO CLOUDS BELOW 12,000 FEET WITH NO
SIGNIFICANT WEATHER AND/OR OBSTRUCTIONS TO VISIBILITY.

NCZ001-053-055-056-065-067-030100-
WESTERN NORTH CAROLINA
  
CITY           SKY/WX    TMP DP  RH WIND       PRES   REMARKS
ASHEVILLE      MOCLDY    74  64  71 S6        29.98S                  
JEFFERSON      PTCLDY    69  57  65 NW5       30.01S                  
MORGANTON      CLOUDY    76  72  86 CALM      29.97R                  
HICKORY        CLOUDY    78  62  57 NW3       29.92R                  
RUTHERFORDTON  NOT AVBL                                               
MOUNT AIRY     MOCLDY    74  69  86 NE5       29.94F                  
BOONE          MOCLDY    69  58  69 NW10      30.02S                  
$$
 
NCZ021-022-025-041-071-084-088-030100-
CENTRAL NORTH CAROLINA
  
CITY           SKY/WX    TMP DP  RH WIND       PRES   REMARKS
CHARLOTTE      CLOUDY    77  64  64 SW7       29.92R                  
GREENSBORO     CLOUDY    74  68  81 NE7       29.91R                  
WINSTON-SALEM  LGT RAIN  71  68  90 NE7       29.93R FOG              
RALEIGH-DURHAM CLOUDY    73  71  93 NE5       29.88S                  
FORT BRAGG     CLOUDY    80  69  67 SW13      29.86F                  
FAYETTEVILLE   CLOUDY    78  69  73 SW13G22   29.88R                  
BURLINGTON     CLOUDY    75  69  81 NE6       29.90R                  
LAURINBURG     CLOUDY    74  69  85 SW8       29.90S HAZE             
$$
 
NCZ011-015-027-028-043-044-047-080-103-030100-
NORTHEASTERN NORTH CAROLINA
  
CITY           SKY/WX    TMP DP  RH WIND       PRES   REMARKS
ROCKY MT-WILSO LGT RAIN  76  72  87 N8        29.88R                  
GREENVILLE     CLOUDY    77  77 100 CALM      29.88S                  
WASHINGTON     CLOUDY    75  73  93 CALM      29.87R                  
ELIZABETH CITY MOCLDY    82  67  60 W6        29.85R                  
MANTEO         RAIN      74  71  93 W14G22    29.87R                  
CAPE HATTERAS  PTCLDY    80  73  79 SW16G24   29.89S                  
$$
 
NCZ078-087-090-091-093-098-101-030100-
SOUTHEASTERN NORTH CAROLINA
  
CITY           SKY/WX    TMP DP  RH WIND       PRES   REMARKS
LUMBERTON      LGT RAIN  74  70  87 SW10      29.88F                  
GOLDSBORO      TSTM      77  73  88 W12       29.86R                  
KINSTON        CLOUDY    79  75  89 S3        29.87R                  
KENANSVILLE    PTCLDY    83  70  64 SW6       29.88R                  
NEW BERN       PTCLDY    82  73  74 S9        29.88S                  
CHERRY POINT   PTCLDY    81  75  82 S10G22    29.89S                  
BEAUFORT       PTCLDY    81  77  88 SW23G32   29.90S                  
JACKSONVILLE   PTCLDY    82  73  74 S10       29.88R                  
WILMINGTON     PTCLDY    82  73  74 SW13G24   29.90R                  
$$


Return to Home page


Western Regional Climate Center, wrcc@dri.edu